Location: Newark
(41.5333°N, 14.5500°E)
Time: 17:06:20
(UTC+00:00)

LightSail 2 - Visible Passes

Search period start: 21 January 2020 00:00
Search period end: 31 January 2020 00:00
Orbit: 704 x 720 km, 24.0° (Epoch: 20 January)

Date Brightness Start Highest point End Pass type
(mag) Time Alt. Az. Time Alt. Az. Time Alt. Az.
21 Jan 7.7 17:44:34 10° S 17:45:13 10° S 17:45:52 10° SSE visible
22 Jan 7.7 18:31:10 10° S 18:31:34 10° S 18:31:59 10° S visible
23 Jan 7.7 17:32:26 10° SSW 17:33:24 10° S 17:34:23 10° S visible
24 Jan 7.8 16:34:22 10° S 16:35:14 10° S 16:36:06 10° SSE visible
